sat.trackr.live / text

‹ back to catalog

FENGYUN 3B

NORAD 37214 · 2010-059A

PAYLOAD ACTIVE UNKNOWN

§ Identity

Operator
Country
PRC
Launch date
2010-11-04
Launch site
TAISC
Launch vehicle
Mass (kg)
RCS (m²)
6.21

Purposes: earth_obs

External: N2YO · Heavens-Above · Gunter

§ Orbital elements

Epoch: 2026-09-20T05:06:01.944864Z

Period
101.78 min
Inclination
98.9530°
Eccentricity
0.0021066
Mean motion
14.14858255 rev/d
Perigee alt
827.6 km
Apogee alt
858.0 km
Semi-major
7,220.9 km
B*
1.5255e-4
RAAN
309.5874°
Arg perigee
277.8602°
Mean anomaly
168.2115°
Rev number
82,086

§ Raw data

FENGYUN 3B1 37214U 10059A   26263.21252251  .00000250  00000+0  15255-3 0  99982 37214  98.9530 309.5874 0021066 277.8602 168.2115 14.14858255820867

JSON: /api/v1/satellites/37214 · /tle

For live sub-satellite position, see the globe view (requires WebGL).

§ Visibility from observer

Set your observer location to see the next 7 days of passes ≥ 10°. The values pass through the URL so the page stays shareable.

No JS? Fill the form by hand. The geolocation button needs JavaScript.

§ Radio — SatNOGS DB

ModeDescriptionDownlinkUplink
QPSK Mode X 8.146 GHz
AHRPT AHRPT Downlink (inactive) 1.705 GHz
BPSK Telemetry (inactive) 2.246 GHz

3 transmitters · refreshed weekly from db.satnogs.org